Home > Weather > Independence > Past weeks

Flag for USA Past Weather in Independence, Missouri, USA — Yesterday and Last 2 Weeks

Now
76 °F

Clear.


Feels Like: 77 °F
Forecast: 70 / 88 °F
Wind: 5 mph from East

Location: Lee's Summit Municipal Airport

Current Time: Jul 26, 2016 at 1:40:52 AM

Latest Report: Jul 26, 2016 at 12:53 AM


Visibility: 10 mi

Pressure: 30.03 "Hg

Humidity: 80%

Dew Point: 69 °F

Location of IndependenceLocation

Past Weather in Independence — Graph

°F

Independence Temperature Yesterday

Maximum temperature yesterday: 84 °F (at 4:53 PM)
Minimum temperature yesterday: 73 °F (at 3:53 AM)
Average temperature yesterday: 77 °F

High & Low Weather Summary for the Past Weeks

 TemperatureHumidityPressure
High98 °F (Jul 21, 3:53 PM)100% (Jul 14, 2:55 AM)30.19 "Hg (Jul 14, 2:55 AM)
Low66 °F (Jul 12, 6:00 AM)43% (Jul 23, 1:53 PM)29.73 "Hg (Jul 11, 5:53 PM)
Average83 °F71%29.98 "Hg
* Reported Jul 10 11:53 PM — Jul 25 11:53 PM, Independence, Weather by CustomWeather, © 2016

Note: Actual official high and low records may vary slightly from our data, if they occured in-between our weather recording intervals... More about our weather records

Advertising

Independence Weather History for the Previous 24 Hours

Scroll right to see more
 ConditionsComfort  
Time TempWeatherWind HumidityBarometerVisibility
11:53 PM
Mon, Jul 25
77 °FClear.5 mph82%30.03 "Hg10 mi
10:53 PM78 °FClear.3 mph76%30.04 "Hg10 mi
9:53 PM79 °FClear.3 mph72%30.04 "Hg10 mi
8:53 PM80 °FSunny.3 mph67%30.03 "Hg10 mi
7:53 PM81 °FSunny.5 mph69%30.01 "Hg10 mi
6:53 PM81 °FSunny.6 mph67%30.00 "Hg10 mi
5:53 PM83 °FPassing clouds.12 mph61%30.00 "Hg10 mi
4:53 PM84 °FPartly sunny.13 mph67%29.99 "Hg10 mi
3:53 PM81 °FPassing clouds.10 mph74%29.99 "Hg10 mi
2:53 PM81 °FPassing clouds.13 mph74%29.99 "Hg10 mi
1:53 PM78 °FOvercast.8 mph79%30.02 "Hg10 mi
12:53 PM77 °FOvercast.5 mph82%30.05 "Hg10 mi
11:53 AM75 °FOvercast.3 mph85%30.08 "Hg10 mi
10:53 AM75 °FPartly sunny.5 mph85%30.09 "Hg10 mi
9:53 AM75 °FPartly sunny.5 mph82%30.07 "Hg10 mi
8:53 AM74 °FPartly sunny.7 mph88%30.05 "Hg10 mi
7:53 AM73 °FSunny.5 mph90%30.02 "Hg10 mi
6:53 AM74 °FPassing clouds.7 mph88%30.02 "Hg10 mi
5:53 AM73 °FPartly cloudy.5 mph94%30.01 "Hg10 mi
4:53 AM73 °FPassing clouds.5 mph94%30.00 "Hg10 mi
3:53 AM73 °FThundershowers. Partly cloudy.8 mph90%29.99 "Hg10 mi
2:53 AM76 °FThunderstorms. Passing clouds.14 mph82%29.98 "Hg10 mi
1:53 AM76 °FPassing clouds.5 mph85%29.94 "Hg10 mi
Weather by CustomWeather, © 2016

See weather overviewHow to use our weather pages